www.pogodaiklimat.ru

Погода и климат >> Архив погоды >> Россия >> Якутия >> Белая Гора


ПОГОДА в Белой Горе

  • Прогноз погоды в Белой Горе
  • Монитор погоды в Белой Горе
  • Климат города

АРХИВ ПОГОДЫ в Белой Горе

Время (UTC), дата Ветер
(напр.,м/с)
 
Видим.   Явления Облачность Т
(С)
Тd
(С)
f
(%)
Тe
(С)
Тes
(С)
Комфортность P
(гПа)
Po
(гПа)
Тmin
(С)
Tmax
(С)
R
(мм)
R24
(мм)
S
(см)
09 13.01 ЮЗ 1 н/о н/о -44.5 -49.3 58 -50 -50 опасность
обморожения
1020.9 1014.2 -44.1
12 13.01 штиль 0 н/о н/о -46.0 -51.0 57 -46 -46 опасность
обморожения
1020.6 1013.9
15 13.01 ЮЗ 2 н/о н/о -47.3 -52.3 56 -58 -58 опасность
обморожения
1020.0 1013.2
18 13.01 штиль 0 н/о н/о -47.7 -52.9 55 -48 -48 опасность
обморожения
1019.5 1012.7
21 13.01 штиль 0 н/о н/о -48.7 -54.0 54 -49 -49 опасность
обморожения
1019.2 1012.4 -49.1
00 14.01 З 1 н/о н/о -45.4 -50.3 58 -51 -51 опасность
обморожения
1019.0 1012.3
03 14.01 З 1 н/о н/о -42.2 -46.8 61 -48 -48 опасность
обморожения
1018.5 1011.9
06 14.01 ЮЗ 1 н/о н/о -43.0 -47.7 60 -49 -49 опасность
обморожения
1018.8 1012.2
09 14.01 З 1 н/о н/о -46.4 -51.4 57 -52 -52 опасность
обморожения
1020.0 1013.2 -41.7
12 14.01 ЮЗ 1 н/о н/о -48.7 -54.0 54 -55 -55 опасность
обморожения
1020.3 1013.5
15 14.01 штиль 0 н/о н/о -49.5 -54.9 53 -50 -50 опасность
обморожения
1020.4 1013.6
18 14.01 штиль 0 н/о н/о -51.1 -56.8 50 -51 -51 опасность
обморожения
1020.8 1013.9
21 14.01 штиль 0 н/о н/о -51.6 -57.3 50 -52 -52 опасность
обморожения
1021.1 1014.2 -51.6
00 15.01 штиль 0 2000 м дымка ясно -52.0 -58.2 47 -52 -52 опасность
обморожения
1020.8 1014.3
03 15.01 штиль 0 2000 м дымка ясно -51.8 -58.0 47 -52 -52 опасность
обморожения
1020.5 1014.0
06 15.01 штиль 0 2000 м дымка ясно -51.5 -57.6 48 -52 -52 опасность
обморожения
1021.0 1014.5
09 15.01 штиль 0 н/о н/о -51.7 -57.4 50 -52 -52 опасность
обморожения
1021.6 1014.7 -51.2
12 15.01 В 2 н/о н/о -51.7 -57.5 50 -63 -63 опасность
обморожения
1022.1 1015.2
15 15.01 штиль 0 н/о н/о -51.7 -57.4 50 -52 -52 опасность
обморожения
1021.9 1015.0
18 15.01 штиль 0 н/о н/о -50.9 -56.6 50 -51 -51 опасность
обморожения
1022.2 1015.3
21 15.01 З 1 н/о н/о -50.2 -55.7 52 -57 -57 опасность
обморожения
1022.4 1015.5 -52.3
00 16.01 ЮЗ 1 4000 м дымка 5/0
[As op]
-50.0 -55.6 51 -56 -56 опасность
обморожения
1022.0 1015.6
03 16.01 З 2 4000 м дымка 5/0
[As op]
-49.8 -55.3 52 -61 -61 опасность
обморожения
1021.9 1015.5
06 16.01 З 2 4000 м дымка 6/0
[As op]
-48.2 -53.5 54 -59 -59 опасность
обморожения
1022.4 1016.0
09 16.01 ЮЗ 2 н/о н/о -46.7 -51.8 56 -57 -57 опасность
обморожения
1022.9 1016.1 -46.7
12 16.01 З 2 н/о н/о -45.6 -50.7 56 -56 -56 опасность
обморожения
1022.9 1016.2
15 16.01 ЮЗ 3 н/о н/о -44.4 -49.3 58 -57 -57 опасность
обморожения
1023.1 1016.4
18 16.01 ЮЗ 2 н/о н/о -42.8 -47.5 60 -52 -52 опасность
обморожения
1023.4 1016.7
21 16.01 З 3 н/о н/о -41.5 -46.1 61 -53 -53 опасность
обморожения
1023.5 1016.9 -46.7
00 17.01 ЮЗ 2 4000 м слабый снег 10/0
[As op]
-40.2 -44.7 62 -49 -49 опасность
обморожения
1023.5 1017.3
03 17.01 ЮЗ 3 4000 м слабый снег 10/0
[As op]
-39.0 -43.4 63 -50 -50 опасность
обморожения
1023.1 1017.0
06 17.01 ЮЗ 2 4000 м слабый снег 9/0
[As op]
-38.2 -42.5 64 -47 -47 опасность
обморожения
1023.1 1017.0
09 17.01 ЮЗ 2 н/о н/о -37.1 -41.2 65 -46 -46 опасность
обморожения
1023.4 1016.9 -37.1
12 17.01 ЮЗ 3 н/о н/о -36.1 -40.0 67 -47 -47 опасность
обморожения
1022.9 1016.5
15 17.01 ЮЗ 3 н/о н/о -35.1 -38.9 68 -46 -46 опасность
обморожения
1022.4 1016.0
18 17.01 ЮЗ 3 н/о н/о -34.3 -38.1 68 -45 -45 опасность
обморожения
1021.7 1015.2
21 17.01 ЮЗ 3 н/о н/о -33.2 -36.8 70 -43 -43 опасность
обморожения
1021.3 1015.0 -37.1
00 18.01 ЮЗ 3 4000 м слабый снег 10/0
[As op]
-32.1 -35.6 71 -42 -42 опасность
обморожения
1020.6 1014.6
03 18.01 ЮЗ 4 4000 м слабый снег 10/0
[As op]
-30.7 -34.2 71 -42 -42 опасность
обморожения
1019.9 1014.0
06 18.01 ЮЗ 4 4000 м слабый снег 10/0
[As op]
-28.9 -32.0 74 -40 -40 опасность
обморожения
1019.7 1013.9
09 18.01 З 4 н/о н/о -28.9 -31.9 75 -40 -40 опасность
обморожения
1020.3 1014.0 -28.9
12 18.01 З 3 н/о н/о -28.1 -31.0 76 -37 -37 опасность
обморожения
1020.5 1014.2
15 18.01 ЮЗ 3 н/о н/о -27.7 -30.7 75 -37 -37 опасность
обморожения
1020.3 1014.1
18 18.01 ЮЗ 3 н/о н/о -27.8 -30.7 76 -37 -37 опасность
обморожения
1020.5 1014.3
21 18.01 ЮЗ 3 н/о н/о -28.6 -31.6 75 -38 -38 опасность
обморожения
1020.8 1014.5 -28.9
00 19.01 ЮЗ 3 2000 м слабый снег 10/0
[As op]
-27.5 -30.4 76 -37 -37 опасность
обморожения
1020.4 1014.6
03 19.01 ЮЗ 4 4000 м слабый снег 10/0
[As op]
-26.7 -29.5 77 -37 -37 опасность
обморожения
1019.9 1014.1
06 19.01 ЮЗ 4 2000 м слабый снег 10/0
[As op]
-26.0 -28.8 77 -36 -36 опасность
обморожения
1020.4 1014.6
09 19.01 ЮЗ 4 н/о н/о -26.7 -29.5 77 -37 -37 опасность
обморожения
1021.0 1014.8 -25.8
12 19.01 ЮЗ 5 н/о н/о -27.6 -30.5 76 -40 -40 опасность
обморожения
1021.5 1015.3
15 19.01 ЮЗ 4 н/о н/о -26.9 -29.7 77 -37 -37 опасность
обморожения
1021.3 1015.1
18 19.01 ЮЗ 4 н/о н/о -26.9 -29.8 76 -37 -37 опасность
обморожения
1021.6 1015.4
21 19.01 ЮЗ 5 н/о н/о -30.7 -33.7 75 -43 -43 опасность
обморожения
1022.0 1015.7 -31.0
00 20.01 Ю 5 н/о н/о -33.0 -36.3 72 -46 -46 опасность
обморожения
1023.3 1016.9 -33.2
03 20.01 Ю 4 н/о н/о -34.4 -37.8 71 -47 -47 опасность
обморожения
1023.7 1017.3
06 20.01 Ю 4 н/о н/о -34.6 -38.1 70 -47 -47 опасность
обморожения
1025.2 1018.7

 

Местоположение метеостанции Белая Гора (Якутия, Россия): широта 68.55 долгота 146.20 высота над уровнем моря 41 м.

В архиве по умолчанию представлена погода в Белой Горе за последнюю неделю. Архивные данные за месяц целиком и за предыдущие месяцы, начиная с января 2011 года, Вы можете получить, выбрав интересующий диапазон дат из раскрывающегося списка и нажав кнопку "Ввод!".

Внимание! Время в таблицах - всемирное. Для получения местного времени необходимо прибавить поправку, которая в Белой Горе равна 11 ч.

Смотрите также архив погоды в соседних городах и на ближайших метеорологических станциях:

Погода в Чокурдахе (Якутия, Россия) (238 км)
Погода в Усть-Моме (Якутия, Россия) (266 км)
Погода в Депутатском (Якутия, Россия) (272 км)
Погода в Среднеколымске (Якутия, Россия) (335 км)
Погода в Андрюшкино (Якутия, Россия) (340 км)
Погода в Зырянке (Якутия, Россия) (373 км)
Погода в Усть-Куйге (Якутия, Россия) (447 км)
Погода в Усть-Чарках (Якутия, Россия) (449 км)
Погода в Юбилейной (Якутия, Россия) (458 км)
Погода в Усть-Нере (Якутия, Россия) (468 км)

Пояснения к столбцам:

Ветер - указаны скорость ветра в м/с - средняя за 10 мин, порывы в срок и между сроками (в фигурных скобках) и направление, откуда дует ветер: С - северный, СВ - северо-восточный, В - восточный, ЮВ - юго-восточный, Ю - южный, ЮЗ - юго-западный, З - западный, СЗ - северо-западный.
Видимость - горизонтальная дальность видимости в метрах или километрах. При видимости от 1 до 10 км при отсутствии осадков обычно наблюдается дымка, при ухудшении видимости до 1 км и менее - туман. В сухую погоду видимость может ухудшаться дымом, пылью или мглою.
Явления - указаны атмосферные явления, наблюдавшиеся в срок или в последний час перед сроком; фигурными скобками обозначены явления, наблюдавшиеся между сроками (за 1-3 часа до срока); квадратными скобками обозначены град или гололедные отложения с указанием их диаметра в мм.
Облачность - указаны через наклонную черту общая и нижняя облачность в баллах и высота нижней границы облаков в метрах; квадратными скобками обозначены формы облаков: Ci - перистые, Cs - перисто-слоистые, Cc - перисто-кучевые, Ac - высококучевые, As - высокослоистые, Sc - слоисто-кучевые, Ns - слоисто-дождевые, Cu - кучевые, Cb - кучево-дождевые. Подробнее классификацию облаков см. в Атласе облаков (PDF).
T - Температура воздуха - температура, измеренная на высоте 2 м над землей.
Td - Температура точки росы - температура, при понижении до которой содержащийся в воздухе водяной пар достигнет насыщения.
f - Относительная влажность воздуха - влажноcть воздуха, измеренная на высоте 2 м над землей.
Te - Эффективная температура - температура, которую ощущает одетый по сезону человек в тени. Характеристика душности погоды. При расчете учитывается влияние влажности воздуха и скорости ветра на теплоощущения человека.
Tes - Эффективная температура на солнце - температура, которую ощущает человек, с поправкой на солнечный нагрев. Характеристика знойности погоды. Зависит от высоты солнца над горизонтом, облачности и скорости ветра. Ночью, в пасмурную погоду, а также при ветре 12 м/с и более поправка равна нулю.
P - Атмосферное давление - приведенное к уровню моря атмосферное давление.
Po - Атмосферное давление - измеренное на уровне метеостанции атмосферное давление.
Tmin - Минимальная температура - минимум температуры воздуха на высоте 2 м над землей.
Tmax - Максимальная температура - максимум температуры воздуха на высоте 2 м над землей.
R - Количество осадков - Количество выпавших осадков за период времени, мм. При наведении курсора мыши на число - период времени, за который выпало указанное количество осадков.
R24 - Количество осадков - Количество выпавших осадков за 24 часа, мм.
S - Снежный покров - Высота снежного покрова, см. При наведении курсора мыши на число - состояние снежного покрова и степень покрытия местности в баллах.